Location: Gage
(33.9753°N, 118.1267°W)
Time: 09:24:58
(UTC+00:00)

Genesis I - Pass Details

Date: 03 August 2024
Orbit: 412 x 456 km, 64.5° (Epoch: 11 September)

Event Time Altitude Azimuth Distance (km) Brightness Sun altitude
Exits shadow 12:30:02 - 204° (SSW) 1,962 5.7 -7.6°
Reaches altitude 10° 12:31:07 10° 203° (SSW) 1,514 5.1 -7.4°
Maximum altitude 12:34:28 74° 117° (ESE) 455 3.0 -6.8°
Drops below altitude 10° 12:37:55 10° 33° (NNE) 1,561 6.7 -6.2°
Sets 12:40:03 0° 31° (NNE) 2,448 7.7 -5.8°
